Washington State Current Weather Observations

 
 ASUS46 KSEW 271010
 RWRWA 
 
 WASHINGTON REGIONAL WEATHER ROUNDUP
 NATIONAL WEATHER SERVICE SEATTLE WA
 300 AM PDT TUE JUN 27 2017
 
 NOTE:"FAIR" INDICATES FEW OR NO CLOUDS BELOW 12,000 FEET WITH NO 
 SIGNIFICANT WEATHER AND/OR OBSTRUCTIONS TO VISIBILITY.
 
 WAZ507-509-555>559-271100-
 SEATTLE, TACOMA, EVERETT, AND VICINITY
   
 CITY           SKY/WX    TMP DP  RH WIND       PRES   REMARKS
 EVERETT        MOCLDY    54  51  90 S8        30.02S                  
 BOEING FIELD   CLEAR     54  51  90 S8        30.03R                  
 RENTON         CLEAR     57  50  77 SE9       30.03S                  
 SEATAC AIRPORT MOCLDY    53  49  86 S7        30.03S                  
 JBLM-MCCHORD   CLOUDY    53  52  99 S6        30.04R                  
 PUYALLUP       MOCLDY    52  50  93 CALM      30.04S                  
 BREMERTON      CLOUDY    53  50  89 S5        30.03S                  
 JBLM-FT LEWIS  CLOUDY    53  52  97 SE6       30.03S                  
 TACOMA NARROWS CLOUDY    53  50  89 S6        30.03F                  
 
WAZ001-503-506-510-514-515-271100- NORTH INTERIOR CITY SKY/WX TMP DP RH WIND PRES REMARKS BELLINGHAM CLEAR 57 50 77 S12G22 29.98R FRIDAY HARBOR CLEAR 47 46 97 CALM 30.01R EASTSOUND CLEAR 55 50 82 S9 29.99R PORT ANGELES CLEAR 49 48 97 CALM 30.01R EDIZ HOOK FAIR 52 49 89 W6 30.01R PORT TOWNSEND CLOUDY 46 46 100 CALM 30.02S NAS WHIDBEY MOCLDY 54 48 80 VRB3 30.05R ARLINGTON CLOUDY 54 50 86 CALM 30.02R BURLINGTON MOCLDY 50 48 93 CALM 30.02R
WAZ020-022-039-040-504-511-512-271100- SOUTHWEST INTERIOR CITY SKY/WX TMP DP RH WIND PRES REMARKS SHELTON NOT AVBL OLYMPIA CLEAR 52 48 86 SW6 30.04R CHEHALIS CLOUDY 55 50 82 CALM 30.06R KELSO CLOUDY 57 49 74 VRB5 30.06S VANCOUVER CLOUDY 58 50 75 N7 30.05R SCAPPOOSE, OR CLOUDY 56 49 77 N8 30.05R PORTLAND, OR CLOUDY 57 48 72 NW8 30.06R
WAZ021-516-517-271100- WASHINGTON COAST CITY SKY/WX TMP DP RH WIND PRES REMARKS FORKS CLOUDY 53 50 89 CALM 30.02S HOQUIAM CLOUDY 57 49 74 SW9 30.04S ASTORIA, OR CLOUDY 57 48 72 CALM 30.05S
WAZ019-023-024-040-567>569-271100- CASCADE MOUNTAINS AND COLUMBIA GORGE CITY SKY/WX TMP DP RH WIND PRES REMARKS STAMPEDE PASS FOG 46 46 100 SW7 30.01F VSB 1/4 TROUTDALE, OR CLOUDY 59 50 72 VRB5 30.05R HOOD RIVER, OR MOSUNNY 61 48 63 W16G23 29.95R THE DALLES, OR PTCLDY 66 51 58 NW8G20 29.90R
WAZ026-027-041>044-520-521-271100- EAST SLOPES CITY SKY/WX TMP DP RH WIND PRES REMARKS OMAK CLOUDY 69 31 24 N13 29.79R WENATCHEE MOCLDY 68 38 33 W17 29.81S ELLENSBURG CLOUDY 63 46 54 NW18G28 29.87R YAKIMA CLOUDY 71 41 33 W6 29.84R SUNNYSIDE ARPT CLOUDY 61 58 88 CALM 29.81S YAKIMA TC NOT AVBL
WAZ028-034-035-271100- COLUMBIA BASIN CITY SKY/WX TMP DP RH WIND PRES REMARKS EPHRATA MOCLDY 71 36 27 W8G18 29.78R MOSES LAKE MOCLDY 69 42 37 N5 29.79R PASCO CLOUDY 68 56 65 SW10 29.81R RICHLAND ARPT CLOUDY 69 58 68 S5 29.80S HERMISTON, OR PTCLDY 68 52 56 SW14G26 29.83R
WAZ036>038-271100- NORTHEAST WASHINGTON CITY SKY/WX TMP DP RH WIND PRES REMARKS SPOKANE GEIGER PTCLDY 63 55 75 SW17 29.80R SPOKANE FELTS PTCLDY 65 56 72 CALM 29.81R FAIRCHILD AFB PTCLDY 61 55 82 SW18G24 29.80R COEURDALENE,ID PTCLDY 62 56 80 SW5 29.83R DEER PARK PTCLDY 60 55 83 SE9 29.80S
WAZ029>033-271100- SOUTHEAST WASHINGTON CITY SKY/WX TMP DP RH WIND PRES REMARKS PULLMAN CLOUDY 64 53 67 SW6 29.87S LEWISTON, ID MOCLDY 67 55 65 W3 29.82R WALLA WALLA CLOUDY 69 54 58 S14 29.87R PENDLETON, OR PTCLDY 61 52 72 NW5 29.89R

Data from: http://www.wrh.noaa.gov/sew/get.php?pil=RWR&sid=WA&version=0&format=printer

Current Observations

Current Weather Conditions by Major Highway
Washington State Current Weather Observations   …  Oregon State Current Weather Observation



48 Hour Forecast


Seattle  …  Vancouver  …  Portland
————————————————————————————————————————
Bend  …  Spokane  …  Richland  …  Pendleton  …  Blue Mountains I-84  …  Yakima
————————————————————————————————————————
Goldendale, Washington Higher Elevations  …  Dallesport Airport - Goldendale  …  Bingen - White Salmon - Hood River  …  Index





Top of Page